Flag for Germany Weather past 2 weeks in Bad Oldesloe, Schleswig-Holstein, Germany

Now
61 °F

Passing clouds.


Feels Like: 61 °F
Forecast: 46 / 60 °F
Wind: 7 mph from Southwest

Location: Luebeck-Blankensee

Current Time: May 22, 2015 at 12:26:16 PM

Latest Report: May 22, 2015 at 11:50 AM


Visibility: N/A

Pressure: 30.27 "Hg

Humidity: 59%

Dew point: 46 °F

Location of Bad OldesloeLocation

Historic Weather in Bad Oldesloe — Graph

°F

Bad Oldesloe temperature yesterday

Maximum temperature yesterday: 59 °F (at 5:50 PM)
Minimum temperature yesterday: 43 °F (at 6:20 AM)
Average temperature yesterday: 53 °F

Past Weeks' High & Low Weather Summary

 TemperatureHumidityPressure
High72 °F (May 11, 5:50 PM)100% (May 8, 7:20 AM)30.33 "Hg (May 8, 7:20 AM)
Low41 °F (May 8, 6:50 AM)39% (May 13, 4:20 PM)29.56 "Hg (May 19, 6:20 AM)
Average54 °F68%30.00 "Hg
* Reported May 7 10:20 AM — May 22 10:50 AM, Bad Oldesloe, Weather by CustomWeather, © 2015

Note: Actual official high and low records may vary slightly from our data, if they occured in-between our weather recording intervals... More about our weather records

Advertising

Bad Oldesloe weather history for previous 24 hours

 ConditionsComfort  
Time TempWeatherWind HumidityBarometerVisibility
10:50 AM
Fri, May 22
57 °FScattered clouds.8 mph63%30.27 "HgN/A
10:20 AM57 °FScattered clouds.7 mph67%30.27 "HgN/A
9:50 AM55 °FPassing clouds.7 mph72%30.27 "HgN/A
9:20 AM54 °FScattered clouds.3 mph77%30.30 "HgN/A
8:50 AM54 °FScattered clouds.6 mph82%30.30 "HgN/A
8:20 AM52 °FScattered clouds.6 mph82%30.30 "HgN/A
7:50 AM50 °FPartly sunny.6 mph88%30.30 "HgN/A
7:20 AM48 °FPartly sunny.1 mph94%30.30 "HgN/A
6:50 AM46 °FPartly sunny.2 mph93%30.30 "HgN/A
9:50 PM
Thu, May 21
46 °FSunny.2 mph82%30.27 "Hg10 mi
9:20 PM50 °FSunny.2 mph71%30.27 "Hg10 mi
8:50 PM54 °FSunny.5 mph63%30.24 "Hg10 mi
8:20 PM54 °FSunny.7 mph63%30.24 "Hg10 mi
7:50 PM55 °FScattered clouds.8 mph59%30.24 "HgN/A
7:20 PM55 °FScattered clouds.8 mph59%30.24 "HgN/A
6:50 PM55 °FScattered clouds.12 mph59%30.24 "HgN/A
6:20 PM57 °FScattered clouds.10 mph55%30.24 "HgN/A
5:50 PM59 °FScattered clouds.8 mph55%30.21 "HgN/A
5:20 PM57 °FPartly sunny.10 mph59%30.21 "HgN/A
4:50 PM55 °FPartly sunny.9 mph63%30.21 "HgN/A
4:20 PM57 °FPartly sunny.7 mph59%30.21 "HgN/A
3:50 PM55 °FPartly sunny.8 mph67%30.21 "HgN/A
3:20 PM55 °FPartly sunny.12 mph63%30.21 "HgN/A
2:50 PM54 °FPartly sunny.9 mph67%30.21 "HgN/A
2:20 PM54 °FScattered showers. Scattered clouds.6 mph67%30.21 "HgN/A
1:50 PM54 °FScattered showers. Scattered clouds.7 mph67%30.21 "HgN/A
1:20 PM52 °FScattered showers. Scattered clouds.10 mph72%30.21 "HgN/A
12:50 PM54 °FScattered showers. Scattered clouds.14 mph72%30.18 "HgN/A
12:20 PM55 °FPartly sunny.14 mph63%30.18 "HgN/A
Weather by CustomWeather, © 2015

See weather overviewHow to use our weather pages